This demonstration page uses our WeatherBlox Daily Observations layout. Learn more.

Left ArrowRight Arrow

Hourly Observations for June 21, 2015

Temp ( °F °C ) Dew Point ( °F °C ) Humidity (%) Winds ( mph kmh ) Pressure ( in mb ) Visibility ( mi km ) Precip ( " mm )
12:51 am 00:51 Clear 78 25.6 20 -6.7 11 11 NNW 7 11 29.70 1006 10 16 0.00 0.00
1:51 am 01:51 Clear 78 25.6 22 -5.6 12 12 W 7 11 29.70 1006 10 16 0.00 0.00
2:51 am 02:51 Clear 76 24.4 21 -6.1 13 13 NW 12 19 29.71 1006 10 16 0.00 0.00
3:51 am 03:51 Clear 77 25 21 -6.1 12 12 NW 10 17 29.71 1006 10 16 0.00 0.00
4:51 am 04:51 Clear 80 26.7 22 -5.6 11 11 NW 12 19 29.72 1007 10 16 0.00 0.00
5:51 am 05:51 Sunny 82 27.8 39 3.9 22 22 WNW 14 22 29.75 1008 10 16 0.00 0.00
6:51 am 06:51 Sunny 87 30.6 45 7.2 23 23 NW 21 33 29.78 1008 10 16 0.00 0.00
7:51 am 07:51 Sunny 90 32.2 48 8.9 24 24 WNW 18 30 29.79 1009 10 16 0.00 0.00
8:51 am 08:51 Sunny 92 33.3 48 8.9 22 22 NW 21 33 29.80 1009 10 16 0.00 0.00
9:51 am 09:51 Sunny 96 35.6 45 7.2 17 17 NW 22 35 29.78 1009 10 16 0.00 0.00
10:51 am 10:51 Sunny 99 37.2 44 6.7 15 15 NW 24 39 29.78 1008 10 16 0.00 0.00
11:51 am 11:51 Sunny 101 38.3 42 5.6 13 13 WNW 24 39 29.75 1008 10 16 0.00 0.00
12:51 pm 12:51 Sunny 103 39.4 41 5 12 12 WNW 20 31 29.73 1007 10 16 0.00 0.00
1:51 pm 13:51 Sunny 104 40 40 4.4 11 11 WNW 20 31 29.72 1006 10 16 0.00 0.00
2:51 pm 14:51 Sunny 107 41.7 40 4.4 10 10 WNW 20 31 29.69 1005 10 16 0.00 0.00
3:51 pm 15:51 Sunny 55 12.8 49 9.4 80 80 W 22 35 29.89 1012 10 16 0.00 0.00
4:51 pm 16:51 Sunny 104 40 40 4.4 11 11 WNW 25 41 29.65 1004 10 16 0.00 0.00
5:51 pm 17:51 Sunny 102 38.9 40 4.4 12 12 WNW 20 31 29.66 1004 10 16 0.00 0.00
6:51 pm 18:51 Sunny 99 37.2 40 4.4 13 13 WNW 22 35 29.66 1005 10 16 0.00 0.00
7:51 pm 19:51 Clear 94 34.4 40 4.4 15 15 WNW 20 31 29.68 1005 10 16 0.00 0.00
8:51 pm 20:51 Clear 92 33.3 42 5.6 18 18 NW 18 30 29.70 1006 10 16 0.00 0.00
9:51 pm 21:51 Clear 91 32.8 42 5.6 18 18 WNW 17 28 29.72 1007 10 16 0.00 0.00
10:51 pm 22:51 Clear 89 31.7 43 6.1 20 20 NW 14 22 29.74 1007 10 16 0.00 0.00
11:51 pm 23:51 Clear 87 30.6 44 6.7 22 22 NW 12 19 29.75 1007 10 16 0.00 0.00

Powered by AerisWeather